This is the latest recevied weather packets stored in our database for station/object KF7SOJ. If no packets are shown the sender has not sent any weather packets the latest 10 day(s).
| Time | Temp. | Humidity | Pressure | Rain* | Wind** | Luminosity | Snow |
|---|---|---|---|---|---|---|---|
| 1777565771 | 13.33° C | 30% | 938.1 hPa | 0 mm | - | 683 W/m² | - |
| 1777565468 | 12.78° C | 30% | 938.1 hPa | 0 mm | - | 668 W/m² | - |
| 1777565165 | 13.33° C | 31% | 938.2 hPa | 0 mm | - | 653 W/m² | - |
| 1777564861 | 12.78° C | 34% | 938.2 hPa | 0 mm | - | 638 W/m² | - |
| 1777564556 | 12.78° C | 32% | 938 hPa | 0 mm | - | 621 W/m² | - |
| 1777564251 | 12.78° C | 35% | 938.3 hPa | 0 mm | - | 605 W/m² | - |
| 1777563948 | 12.78° C | 33% | 938.1 hPa | 0 mm | - | 588 W/m² | - |
| 1777563644 | 12.22° C | 34% | 938.1 hPa | 0 mm | - | 570 W/m² | - |
| 1777563344 | 12.22° C | 37% | 938.2 hPa | 0 mm | - | 554 W/m² | - |
| 1777563041 | 12.22° C | 36% | 938.4 hPa | 0 mm | - | 538 W/m² | - |
| 1777562736 | 11.67° C | 36% | 938.4 hPa | 0 mm | - | 523 W/m² | - |
| 1777562435 | 11.67° C | 38% | 938.5 hPa | 0 mm | - | 502 W/m² | - |
| 1777562132 | 11.67° C | 37% | 938.5 hPa | 0 mm | - | 485 W/m² | - |
| 1777561830 | 11.67° C | 39% | 938.3 hPa | 0 mm | - | 469 W/m² | - |
| 1777561526 | 11.11° C | 37% | 938.5 hPa | 0 mm | - | 452 W/m² | - |
| 1777561221 | 11.11° C | 38% | 938.5 hPa | 0 mm | - | 433 W/m² | - |
| 1777560920 | 11.67° C | 39% | 938.5 hPa | 0 mm | - | 416 W/m² | - |
| 1777560618 | 11.11° C | 40% | 938.6 hPa | 0 mm | - | 402 W/m² | - |
| 1777560316 | 10.56° C | 40% | 938.4 hPa | 0 mm | - | 383 W/m² | - |
| 1777560014 | 10° C | 42% | 938.4 hPa | 0 mm | - | 365 W/m² | - |
| 1777559708 | 10° C | 48% | 938.4 hPa | 0 mm | - | 347 W/m² | - |
| 1777559406 | 9.44° C | 46% | 938.3 hPa | 0 mm | - | 328 W/m² | - |
| 1777559103 | 8.89° C | 52% | 938.5 hPa | 0 mm | - | 309 W/m² | - |
| 1777558797 | 7.78° C | 53% | 938.4 hPa | 0 mm | - | 289 W/m² | - |
| 1777558493 | 7.78° C | 55% | 938.4 hPa | 0 mm | - | 270 W/m² | - |
* Rain latest hour (hover to see other rain measurements)
** Current wind speed in m/s (hover to see current wind gust speed)